STARLINK-11671, 64319

Orbit data source: Space-Track

STARLINK-11671, 64319 is a payload satellite owned by SpaceX/Seattle (US) in LEO that was launched on Tue, 10 Jun 2025 UTC via an FALCON 9 launch vehicle from the Air Force Eastern Test Range (AFETR). Payload-class satellites include a variety of spacecraft equipped with specific instruments for various scientific and technological missions. These include communications satellites like Starlink; space stations such as the ISS; scientific satellites like the Hubble; Earth observation satellites from companies like Planet Labs, Umbra, and HawkEye 360; GPS; miniature CubeSats for education and research; and military/defense satellites.

Loading next visibility...
Identifier
64319, 2025-124C
Orbit
LEO
Last TLE update
16 hours ago
Origin
Manufacturer
SpaceX/Seattle
Mission
Operational spacecraft
Bus & Motor
STARLINK V2M, Unknown motor
Mass
730 kg wet, ~700 kg dry
Launch date (UTC)
2025-06-10 (3 weeks ago)
Launch vehicle
FALCON 9
Launch site
Air Force Eastern Test Range (AFETR)
Object type
Payload
Rocket body
Debris
Shape & HBR
Unknown
Radar Cross Section
Large (>1 m²)

Expand to show TLE details & history

TLE from 16 hours ago
0 STARLINK-11671
1 64319U 25124C   25182.20673586  .00173612  00000-0  97809-3 0  9998
2 64319  43.0003 105.8896 0001582 271.8089  88.2600 15.77906835  3270
Epoch: 2025-07-01T04:57Z
TLE epoch observation values (Epoch: 2025-07-01T04:57:41.978Z)
Latitude
-0.00001°
Longitude
111.95917°
Altitude
336.111 km
Speed
7.709 km/s
True Right ascension
07h 03m 33s
True Declination
0° 00' 00"
Sunlit
Object was in daylight at epoch
Visualization orbit readout
Latitude
39.47693°
Longitude
-133.4546°
Altitude
339.06 km
Speed
7.71 km/s
Apparent Right ascension
17h 23m 43s
Apparent Declination
1° 21' 31"
Sunlit
Object is in daylight
Visualization observer readout
Local Sidereal Time
08:17:30
Azimuth
54.856° ENE
Elevation
-32.786°
Doppler factor
1
Orbital elements
Apogee altitude
339.422 km
Perigee altitude
337.297 km
Semi-major axis
6,716.497 km
Eccentricity
0.00016
Inclination
43.0003°
RAAN
105.8896°
Arg. of periapsis
271.8089°
True anomaly
Unknown
Mean anomaly
88.26°
Eccentric anomaly
Unknown
Mean motion
3.94302 °/min
Orbital period
91.3 mins
BSTAR
0.00097809
Loading maneuver chart data...
Loading SW <> Apogee altitude chart data...
Loading historical data...
Loading historical data...
Loading historical data...
Loading historical data...
Loading historical data...
Loading historical data...
Loading historical data...

STARLINK-11671 Visibility forecast

Observer location: undefined°, undefined°

Span
Click to sort rows by Start time (UTC) header in descending order
Start Az.
Max El. time (UTC)
Max El. Az.
Max El.
End time (UTC)
End Az.
4 mins2025-07-01 23:28:22.676Z260.862° W2025-07-01 23:29:22.676Z288.382° WNW42.985°2025-07-01 23:32:22.676Z70.33° E
|